Location: Asheville, NC
(35.6000°N, 82.5500°W)
Time: 23:12:52

YUBILEINY - Pass Details

Date: 16 March 2018
Orbit: 1478 x 1509 km, 82.5° (Epoch: 20 March)

Event Time Altitude Azimuth Distance (km) Brightness Sun altitude
Rises 06:13:15 0° 351° (N) 4,614 ? -18.3°
Reaches altitude 10° 06:16:08 10° 350° (N) 3,634 ? -17.7°
Maximum altitude 06:24:51 79° 266° (W) 1,520 ? -16.0°
Drops below altitude 10° 06:33:37 10° 181° (S) 3,640 ? -14.2°
Sets 06:36:29 0° 180° (S) 4,622 ? -13.6°
